Vorticity
nan nan nan nan nan nan nan nan nan nan nan nan nan nan nan nan nan nan nan nan nan nan
nan 7 7 10 10 6 9 9 13 10 8 10 9 8 6 7 9 7 8 8 8 nan
nan 10 8 10 10 8 8 11 11 9 10 8 8 9 7 7 7 6 8 8 8 nan
nan 10 9 9 8 12 11 12 8 11 9 8 7 8 6 4 8 10 8 8 8 nan
nan 10 10 10 11 9 9 11 7 8 9 10 9 9 8 7 8 9 8 8 8 nan
nan 9 9 9 10 11 10 7 8 9 9 7 7 8 8 8 8 8 9 9 8 nan
nan 12 11 9 7 9 9 6 7 7 6 7 9 12 9 9 8 9 8 8 7 nan
nan 13 13 10 5 7 9 5 7 5 6 8 11 11 13 9 10 9 7 8 10 nan
nan 13 12 9 7 7 7 5 5 6 7 6 8 11 11 12 9 8 8 8 9 nan
nan 10 8 10 8 7 5 5 7 9 9 7 6 13 15 12 7 9 11 10 9 nan
nan 10 9 10 9 7 9 8 7 9 9 8 8 13 15 10 7 9 9 10 8 nan
nan 9 10 10 11 10 8 8 7 6 10 11 12 14 6 2 8 10 10 9 9 nan
nan 10 10 9 11 8 11 11 8 10 12 12 16 12 9 3 7 9 8 9 13 nan
nan nan nan nan nan nan nan nan nan nan nan nan nan nan nan nan nan nan nan nan nan nan
CAPE
4043 3270 3059 2946 1892 1295 795 386 610 1821 857 436 298 231 33 2 10 29 36 58 153 58
3982 3634 2993 2841 2783 1785 1467 432 1064 1139 729 271 366 93 45 2 9 8 12 12 67 156
3331 3535 3331 3158 3231 2256 1888 1403 918 741 323 286 244 94 143 25 11 10 0 0 7 73
2941 3050 3370 3304 3428 3017 2210 1396 947 789 263 277 232 175 235 186 9 22 4 3 97 264
2913 2889 3140 3390 3058 2317 1729 973 1038 534 397 305 173 196 298 185 10 24 0 47 235 396
2837 2930 3067 2819 1697 1671 863 649 360 432 663 738 695 276 358 399 294 113 64 187 312 363
2839 2752 2734 2004 427 263 240 325 199 430 274 272 535 553 512 410 401 188 136 321 439 586
3048 2663 1991 1267 321 165 152 438 7 33 0 13 629 317 735 355 259 290 394 499 642 769
3421 2400 1304 960 778 897 745 392 32 2 10 32 155 24 19 158 321 432 656 831 921 998
3019 1968 1223 889 856 794 568 327 197 134 133 62 329 58 29 40 242 412 797 1065 950 722
2649 1727 1612 1240 1160 911 461 227 364 304 191 167 253 251 0 2 449 905 1094 824 526 548
2075 1479 1216 1242 1149 1114 838 562 644 657 555 552 646 0 0 0 474 859 891 593 320 245
1747 1680 1367 1426 1312 1146 1160 826 471 598 664 330 1108 0 0 0 435 745 518 420 222 5
1905 2116 2034 1818 1347 1103 959 855 931 781 1051 796 369 638 0 0 549 224 217 349 845 330